[[{"header":{"parameterUnit":"m.s-1","parameterCategory":1,"la1":30.2991,"la2":30.254,"lo1":-89.0895,"lo2":-89.0444,"dy":0.0017,"dx":0.0017,"nx":28,"ny":28,"refTime":"2024-08-18T21:00:00:Z","depth":0,"parameterNumber":2,"parameterNumberName":"U-component_of_WINDS"},"data":[0,0,0,0,0,0,0,0,0,0,0,0,0,0,0,0,0,0,0,0,0,0,0,0,0,0,0,0,0,0,0,0,0,0,0,0,0,0,0,0,0,0,0,0,0,0,0,0,0,0,0,0,0,0,0,0,0,0,0.626,0.626,0,0.6304,0.6305,0.6305,0.6357,0.6358,0.6358,0.6359,0.6404,0.6405,0.6405,0,0,0,0,0,0,0,0,0,0,0,0,0,0.622,0.622,0.626,0.626,0.6261,0.6304,0.6305,0.6305,0.6357,0.6358,0.6358,0.6359,0.6404,0.6405,0.6405,0,0,0,0,0,0,0,0,0,0,0,0,0,0.6248,0.622,0.6259,0.6292,0.6295,0.6304,0.6305,0.6305,0.6356,0.6358,0.6359,0.636,0.6404,0.6405,0.6405,0.6386,0,0,0.6407,0.6408,0,0,0,0,0,0,0,0,0.6246,0.6249,0.6286,0.6289,0.6293,0.6326,0.6307,0.6332,0.6356,0.6333,0.6359,0.636,0.6377,0.638,0.6386,0.6388,0.639,0.6408,0.6408,0.6408,0.6408,0,0,0,0,0,0,0,0.6244,0.6248,0.6277,0.6287,0.6291,0.6304,0.6309,0.6312,0.6348,0.6335,0.6339,0.6344,0.6379,0.6385,0.6387,0.6391,0.6407,0.6408,0.6409,0.6409,0.6382,0.638,0,0,0,0,0,0,0.6237,0.6246,0.6276,0.6278,0.6272,0.6304,0.631,0.6314,0.6348,0.6354,0.6342,0.6346,0.6383,0.6387,0.6389,0.6371,0.6408,0.6409,0.6409,0.6383,0.6381,0.638,0,0,0,0,0,0,0.6236,0.6239,0.6274,0.6263,0.6269,0.6303,0.6308,0.6315,0.632,0.6354,0.636,0.6342,0.6384,0.6388,0.6387,0.6373,0.6409,0.641,0.6384,0.6382,0.6381,0.6332,0,0,0,0,0,0,0.6235,0.6239,0.6232,0.6263,0.6269,0.6271,0.6307,0.6315,0.6322,0.6326,0.6355,0.6361,0.6386,0.6386,0.6388,0.6374,0.641,0.6386,0.6383,0.6381,0.6335,0.6329,0.6323,0,0,0,0,0,0.6233,0.6216,0.6231,0.6234,0.6261,0.627,0.6273,0.6302,0.632,0.6314,0.6335,0.636,0.6374,0.6385,0.6388,0.6374,0.6387,0.6384,0.6381,0.6337,0.633,0.6323,0,0,0,0,0,0,0.6182,0.622,0.6238,0.623,0.6246,0.6278,0.6271,0.6293,0.6305,0.6309,0.6344,0.635,0.6345,0.636,0.6372,0.6359,0.6384,0.6382,0.6349,0.6343,0.6337,0.6334,0.6411,0,0,0,0,0,0.617,0.6174,0.6207,0.6197,0.6204,0.6236,0.6241,0.6262,0.628,0.6288,0.6309,0.6326,0.6334,0.6339,0.6348,0.6337,0.6345,0.6329,0.6323,0.6318,0.6317,0.6313,0.6307,0.6372,0.6372,0.6372,0,0,0.6145,0.6166,0.6166,0.6187,0.6202,0.6206,0.6241,0.6244,0.6247,0.6288,0.6289,0.6305,0.6326,0.632,0.6318,0.6332,0.63,0.6315,0.6311,0.6312,0.631,0.6304,0.6298,0.637,0.637,0.637,0,0,0.6101,0.6117,0.6111,0.6126,0.6148,0.617,0.6168,0.6197,0.621,0.6211,0.6242,0.6247,0.626,0.6274,0.6283,0.6246,0.627,0.6248,0.6218,0.6214,0.6209,0.6205,0.6193,0.6188,0.6245,0.6245,0.6245,0,0.6067,0.6074,0.6105,0.6106,0.6114,0.6152,0.6146,0.6159,0.6183,0.6189,0.6203,0.6222,0.6239,0.6237,0.6228,0.6234,0.6234,0.6245,0.6207,0.6203,0.62,0.6189,0.6184,0.6243,0.6243,0.6243,0.6244,0,0.6032,0.6036,0.6028,0.6052,0.6059,0.6057,0.6088,0.6092,0.6112,0.6132,0.6134,0.6155,0.617,0.6171,0.6191,0.6173,0.6181,0.6201,0.6227,0.619,0.6181,0.6177,0.6239,0.624,0.6241,0.6241,0,0,0.5957,0.5998,0.5995,0.6007,0.6035,0.6039,0.6038,0.6053,0.6057,0.6072,0.6073,0.6084,0.6103,0.6113,0.6135,0.6131,0.6102,0.6152,0.6153,0.6143,0.6086,0.6071,0.6066,0.6118,0.6117,0.6116,0.6084,0,0.592,0.5922,0.595,0.5944,0.5949,0.5985,0.5984,0.6002,0.602,0.6028,0.6048,0.6056,0.608,0.6086,0.6084,0.6106,0.6091,0.6109,0.612,0.612,0.6115,0.6061,0.6045,0.6014,0.6081,0.608,0.608,0,0.5877,0.589,0.5885,0.5914,0.5917,0.5916,0.5933,0.5939,0.596,0.5974,0.5985,0.601,0.6012,0.6036,0.604,0.6052,0.6058,0.6069,0.6069,0.6072,0.6098,0.6064,0.6005,0.6,0.6074,0.6074,0.6075,0,0.5825,0.5842,0.5841,0.585,0.5883,0.5882,0.5896,0.5918,0.5926,0.594,0.5946,0.596,0.5968,0.5979,0.6007,0.6021,0.6008,0.6034,0.6021,0.602,0.6017,0.6017,0.596,0.6019,0.6019,0.6019,0.6019,0,0.5781,0.5777,0.5819,0.5818,0.5814,0.5847,0.5843,0.586,0.5879,0.5883,0.5915,0.5918,0.5954,0.5962,0.5984,0.5985,0.5988,0.6,0.6006,0.5998,0.5996,0.6003,0.6007,0.6018,0.6018,0.6018,0.6019,0,0.5723,0.5751,0.5753,0.5785,0.5792,0.5788,0.5816,0.5817,0.5838,0.5843,0.5846,0.5878,0.5889,0.5918,0.5935,0.595,0.5946,0.5956,0.5939,0.5943,0.5929,0.593,0.5874,0.5869,0.593,0.5929,0.5929,0,0.5694,0.5692,0.5723,0.5728,0.5741,0.5749,0.5757,0.5789,0.5796,0.582,0.5818,0.5831,0.5844,0.5859,0.5885,0.5899,0.5911,0.589,0.5913,0.5905,0.5912,0.5913,0.5913,0.5886,0.5885,0.5884,0.5884,0,0.564,0.5654,0.5664,0.568,0.5689,0.5702,0.5718,0.572,0.5756,0.5763,0.5774,0.5784,0.5802,0.5815,0.5833,0.5848,0.5872,0.5876,0.5874,0.5866,0.5857,0.5863,0.5927,0.5877,0.5878,0.5878,0.5879,0.5879,0.5597,0.5597,0.5619,0.563,0.5645,0.5659,0.5662,0.5683,0.5693,0.5711,0.5729,0.5739,0.5761,0.5788,0.5801,0.581,0.5822,0.5819,0.5818,0.5817,0.5814,0.5854,0.5813,0.5813,0.5813,0.5813,0.5814,0,0.5546,0.5562,0.5572,0.5593,0.5601,0.5622,0.5641,0.5647,0.5655,0.5673,0.5685,0.5698,0.5711,0.5738,0.5753,0.5755,0.5767,0.5758,0.5759,0.5763,0.5801,0.5802,0.5749,0.5749,0.5749,0.5749,0.5749,0.5749,0.552,0.5522,0.5538,0.5548,0.5565,0.5574,0.5583,0.5597,0.5611,0.5625,0.5636,0.5653,0.5675,0.5693,0.5706,0.5713,0.5718,0.5707,0.5718,0.5754,0.576,0.5766,0.5767,0.5707,0.5707,0.5679,0.5679,0.5679]},{"header":{"parameterUnit":"m.s-1","parameterCategory":1,"la1":30.2991,"la2":30.254,"lo1":-89.0895,"lo2":-89.0444,"dy":0.0017,"dx":0.0017,"nx":28,"ny":28,"refTime":"2024-08-18T21:00:00:Z","depth":0,"parameterNumber":3,"parameterNumberName":"V-component_of_WINDS"},"data":[0,0,0,0,0,0,0,0,0,0,0,0,0,0,0,0,0,0,0,0,0,0,0,0,0,0,0,0,0,0,0,0,0,0,0,0,0,0,0,0,0,0,0,0,0,0,0,0,0,0,0,0,0,0,0,0,0,0,-1.3047,-1.3047,0,-1.2992,-1.2992,-1.2991,-1.3006,-1.3007,-1.3008,-1.3009,-1.2949,-1.2947,-1.2944,0,0,0,0,0,0,0,0,0,0,0,0,0,-1.3165,-1.3163,-1.3047,-1.3047,-1.3046,-1.2992,-1.2992,-1.2991,-1.3005,-1.3007,-1.3008,-1.3009,-1.295,-1.2947,-1.2944,0,0,0,0,0,0,0,0,0,0,0,0,0,-1.3112,-1.3162,-1.3048,-1.3047,-1.3046,-1.2993,-1.2992,-1.2991,-1.3005,-1.3007,-1.3008,-1.301,-1.2951,-1.2947,-1.2943,-1.2886,0,0,-1.2931,-1.293,0,0,0,0,0,0,0,0,-1.3115,-1.3108,-1.3048,-1.3047,-1.3046,-1.3008,-1.3011,-1.2955,-1.3005,-1.3021,-1.3009,-1.3011,-1.2967,-1.2962,-1.2948,-1.2883,-1.2881,-1.2931,-1.2929,-1.2927,-1.2926,0,0,0,0,0,0,0,-1.3119,-1.311,-1.3026,-1.3047,-1.3046,-1.3049,-1.3044,-1.3001,-1.2985,-1.3019,-1.302,-1.3014,-1.2967,-1.2952,-1.2947,-1.288,-1.2931,-1.2928,-1.2925,-1.2924,-1.277,-1.2769,0,0,0,0,0,0,-1.3123,-1.3113,-1.3027,-1.3024,-1.3086,-1.3046,-1.304,-1.3018,-1.2986,-1.2982,-1.3012,-1.3015,-1.2958,-1.2951,-1.2945,-1.2879,-1.2927,-1.2923,-1.2921,-1.2772,-1.277,-1.2768,0,0,0,0,0,0,-1.3126,-1.3116,-1.3029,-1.3069,-1.3058,-1.3042,-1.3018,-1.3016,-1.3001,-1.298,-1.2978,-1.3,-1.2959,-1.295,-1.2902,-1.2877,-1.2922,-1.2918,-1.2774,-1.2771,-1.2769,-1.2745,0,0,0,0,0,0,-1.3129,-1.3116,-1.3094,-1.3068,-1.3056,-1.2988,-1.3016,-1.3014,-1.2995,-1.2997,-1.2968,-1.2964,-1.2959,-1.2908,-1.2898,-1.2872,-1.2915,-1.2776,-1.2773,-1.277,-1.2748,-1.2742,-1.2736,0,0,0,0,0,-1.3133,-1.3088,-1.3093,-1.3082,-1.3028,-1.2986,-1.2979,-1.2975,-1.2992,-1.2971,-1.2958,-1.2965,-1.2881,-1.2903,-1.2892,-1.2864,-1.2778,-1.2774,-1.277,-1.275,-1.2743,-1.2737,0,0,0,0,0,0,-1.3108,-1.3084,-1.309,-1.3034,-1.3013,-1.2989,-1.296,-1.2966,-1.2938,-1.2941,-1.2936,-1.293,-1.2881,-1.2868,-1.2892,-1.281,-1.2832,-1.2826,-1.2821,-1.2813,-1.2808,-1.2813,-1.2912,0,0,0,0,0,-1.3097,-1.3065,-1.3045,-1.2998,-1.2988,-1.2976,-1.2957,-1.2957,-1.2933,-1.2924,-1.2907,-1.2884,-1.2853,-1.2832,-1.2801,-1.2745,-1.2741,-1.2722,-1.2716,-1.2712,-1.2707,-1.268,-1.2673,-1.2755,-1.2755,-1.2755,0,0,-1.3072,-1.3055,-1.3035,-1.2993,-1.2976,-1.2945,-1.2968,-1.2932,-1.2909,-1.2918,-1.2873,-1.286,-1.2834,-1.2783,-1.2759,-1.277,-1.2683,-1.2707,-1.2703,-1.2701,-1.2676,-1.2668,-1.2661,-1.2753,-1.2753,-1.2754,0,0,-1.3011,-1.2994,-1.2955,-1.2939,-1.2914,-1.2907,-1.2898,-1.2874,-1.2867,-1.2822,-1.2829,-1.2801,-1.2746,-1.2729,-1.2712,-1.265,-1.2657,-1.264,-1.2611,-1.2585,-1.2579,-1.2573,-1.2554,-1.2547,-1.2635,-1.2634,-1.2634,0,-1.2983,-1.2936,-1.2934,-1.2899,-1.2882,-1.2891,-1.2853,-1.2837,-1.2802,-1.2791,-1.2803,-1.2738,-1.272,-1.2667,-1.2653,-1.2638,-1.2629,-1.2643,-1.258,-1.2574,-1.2569,-1.255,-1.2543,-1.2633,-1.2633,-1.2633,-1.2633,0,-1.2905,-1.2872,-1.2844,-1.2814,-1.2794,-1.2757,-1.275,-1.273,-1.2731,-1.2724,-1.268,-1.266,-1.2628,-1.2614,-1.2614,-1.2563,-1.2571,-1.2581,-1.2604,-1.2559,-1.2542,-1.2535,-1.263,-1.2631,-1.2632,-1.2632,0,0,-1.2825,-1.2798,-1.2788,-1.2776,-1.2751,-1.2726,-1.2691,-1.2662,-1.2646,-1.2622,-1.2595,-1.255,-1.2561,-1.2543,-1.2541,-1.2518,-1.2475,-1.2532,-1.2532,-1.2525,-1.2421,-1.2415,-1.2406,-1.2479,-1.2477,-1.2476,-1.2424,0,-1.2765,-1.2705,-1.2704,-1.2649,-1.2621,-1.2631,-1.2601,-1.2583,-1.2576,-1.2551,-1.2542,-1.2512,-1.2527,-1.2517,-1.2495,-1.2485,-1.2454,-1.2488,-1.2454,-1.2453,-1.2463,-1.2397,-1.2389,-1.2341,-1.2417,-1.2416,-1.2415,0,-1.2686,-1.2664,-1.2607,-1.2591,-1.2579,-1.2552,-1.2528,-1.2503,-1.2484,-1.248,-1.2462,-1.2465,-1.243,-1.2453,-1.2407,-1.2431,-1.2417,-1.241,-1.2408,-1.2406,-1.2433,-1.2396,-1.2325,-1.2319,-1.2404,-1.2405,-1.2405,0,-1.2638,-1.2594,-1.2556,-1.2545,-1.2523,-1.2505,-1.2495,-1.2477,-1.2461,-1.2439,-1.2429,-1.2403,-1.2388,-1.2368,-1.2364,-1.2381,-1.232,-1.2341,-1.2317,-1.2317,-1.2305,-1.2306,-1.2233,-1.2292,-1.2292,-1.2292,-1.2292,0,-1.2573,-1.2538,-1.2535,-1.2511,-1.2474,-1.2474,-1.2437,-1.2428,-1.2413,-1.2389,-1.2394,-1.2371,-1.2367,-1.2343,-1.2339,-1.2304,-1.2296,-1.2294,-1.2294,-1.2295,-1.2295,-1.2287,-1.2291,-1.229,-1.229,-1.2291,-1.2291,0,-1.2513,-1.2509,-1.2469,-1.2453,-1.2449,-1.2422,-1.2409,-1.2387,-1.2382,-1.2351,-1.2344,-1.2335,-1.2308,-1.2302,-1.2268,-1.2266,-1.2225,-1.2227,-1.2233,-1.2234,-1.2211,-1.2214,-1.2132,-1.2122,-1.2185,-1.2184,-1.2183,0,-1.2473,-1.2447,-1.2431,-1.2416,-1.2406,-1.2381,-1.2366,-1.2365,-1.2349,-1.2328,-1.2309,-1.2283,-1.2262,-1.2218,-1.2209,-1.2184,-1.2187,-1.216,-1.2183,-1.2187,-1.219,-1.2193,-1.2192,-1.2156,-1.2155,-1.2155,-1.2154,0,-1.2402,-1.2403,-1.2381,-1.236,-1.2343,-1.2325,-1.2309,-1.2296,-1.2293,-1.2275,-1.2249,-1.2233,-1.2201,-1.2176,-1.2153,-1.2142,-1.2148,-1.2147,-1.2141,-1.2142,-1.2148,-1.2148,-1.2223,-1.2149,-1.215,-1.215,-1.215,-1.215,-1.2353,-1.2333,-1.2319,-1.2296,-1.2285,-1.227,-1.2251,-1.2244,-1.2223,-1.2198,-1.2199,-1.2171,-1.2155,-1.2124,-1.2113,-1.2091,-1.21,-1.209,-1.2087,-1.2086,-1.2085,-1.215,-1.2086,-1.2087,-1.2087,-1.2087,-1.2087,0,-1.2286,-1.2279,-1.2258,-1.2237,-1.2219,-1.2228,-1.2211,-1.2196,-1.2172,-1.2158,-1.2138,-1.211,-1.2087,-1.2076,-1.2054,-1.2038,-1.2041,-1.2033,-1.2035,-1.2033,-1.2077,-1.2087,-1.2031,-1.2031,-1.2031,-1.2032,-1.2032,-1.2032,-1.2249,-1.2217,-1.2216,-1.2179,-1.2171,-1.2146,-1.2136,-1.2123,-1.2113,-1.2081,-1.2063,-1.2057,-1.2045,-1.2022,-1.2002,-1.1999,-1.1992,-1.1983,-1.1982,-1.2024,-1.2029,-1.2035,-1.2044,-1.198,-1.198,-1.194,-1.1939,-1.1939]}]]